This is the latest recevied weather packets stored in our database for station/object XQ2CG. If no packets are shown the sender has not sent any weather packets the latest 10 day(s).
| Time | Temp. | Humidity | Pressure | Rain* | Wind** | Luminosity | Snow |
|---|---|---|---|---|---|---|---|
| 1788270156 | 63° F | 68% | 759.7 mmHg | 0 in | - | - | - |
| 1788269855 | 63° F | 71% | 759.7 mmHg | 0 in | - | - | - |
| 1788269556 | 62° F | 73% | 760 mmHg | 0 in | - | - | - |
| 1788269255 | 62° F | 75% | 760 mmHg | 0 in | - | - | - |
| 1788268955 | 61° F | 75% | 760 mmHg | 0 in | - | - | - |
| 1788268656 | 61° F | 77% | 760 mmHg | 0 in | - | - | - |
| 1788268356 | 60° F | 75% | 760 mmHg | 0 in | - | - | - |
| 1788268056 | 58° F | 79% | 760 mmHg | 0 in | - | - | - |
| 1788267756 | 58° F | 80% | 760.2 mmHg | 0 in | - | - | - |
| 1788267456 | 57° F | 80% | 760 mmHg | 0 in | - | - | - |
| 1788267155 | 56° F | 82% | 760.2 mmHg | 0 in | - | - | - |
| 1788266857 | 55° F | 84% | 760.2 mmHg | 0 in | - | - | - |
| 1788266557 | 54° F | 85% | 760 mmHg | 0 in | - | - | - |
| 1788266256 | 53° F | 86% | 759.7 mmHg | 0 in | - | - | - |
| 1788265955 | 52° F | 87% | 759.4 mmHg | 0 in | - | - | - |
| 1788265657 | 52° F | 87% | 759.4 mmHg | 0 in | - | - | - |
| 1788265357 | 52° F | 87% | 759.4 mmHg | 0 in | - | - | - |
| 1788265055 | 52° F | 87% | 759.4 mmHg | 0 in | - | - | - |
| 1788264758 | 51° F | 87% | 759.2 mmHg | 0 in | - | - | - |
| 1788264458 | 51° F | 88% | 759.2 mmHg | 0 in | - | - | - |
| 1788264155 | 52° F | 87% | 759.2 mmHg | 0 in | - | - | - |
| 1788263856 | 51° F | 88% | 759.2 mmHg | 0 in | - | - | - |
| 1788263555 | 51° F | 89% | 759.2 mmHg | 0 in | - | - | - |
| 1788263255 | 50° F | 89% | 759.2 mmHg | 0 in | - | - | - |
| 1788262955 | 49° F | 89% | 759.2 mmHg | 0 in | - | - | - |
* Rain latest hour (hover to see other rain measurements)
** Current wind speed in m/s (hover to see current wind gust speed)